Tracking 27420 objects as of 11-Jun-2023
HD Live streaming from Space Station
objects crossing your sky now

STARLINK-5789

Track STARLINK-5789 now!
10-day predictions
STARLINK-5789 is classified as:


NORAD ID: 56003
Int'l Code: 2023-042T
Perigee: 559.2 km
Apogee: 561.2 km
Inclination: 43.0 °
Period: 95.7 minutes
Semi major axis: 6931 km
RCS: Unknown
Launch date: March 24, 2022
Source: United States (US)
Launch site: AIR FORCE EASTERN TEST RANGE (AFETR)
Your satellite tracking list
Your tracking list is empty




NASA's NSSDC Master Catalog

Two Line Element Set (TLE):
1 56003U 23042T   23161.57435096  .00000289  00000-0  34919-4 0  9996
2 56003  43.0012 106.9429 0001487 279.8948  80.1727 15.04487811 12359
Source of the keplerian elements: AFSPC